EW9081 Weather Reports


Display with metric or nautical units.
time (UTC)temp
F
wind
direction
speed
MPH
gust
MPH
rain 1hr
in
rain 24hr
in
rain mn
in
humidity
%
barometer
mb
20260902214856 61 289 1.0 4.0 0.00 0.16 0.16 87 1006.3
20260902214357 60 281 1.0 3.0 0.00 0.16 0.16 88 1006.3
20260902213856 60 235 1.0 3.0 0.00 0.16 0.16 90 1006.2
20260902213358 60 299 0.0 2.0 0.00 0.16 0.16 90 1006.1
20260902212854 60 299 1.0 3.0 0.00 0.16 0.16 90 1006.0
20260902212355 60 299 1.0 4.0 0.00 0.16 0.16 90 1006.0
20260902211859 60 213 2.0 6.0 0.00 0.16 0.16 89 1005.8
20260902211855 60 318 1.0 4.0 0.00 0.16 0.16 90 1005.9
20260902210854 60 207 3.0 6.0 0.00 0.16 0.16 88 1005.8
20260902210401 60 175 3.0 9.0 0.00 0.16 0.16 90 1005.6
20260902210357 60 178 3.0 9.0 0.00 0.16 0.16 89 1005.7
20260902210007 60 172 4.0 8.0 0.00 0.16 0.16 89 1005.6
20260902204854 60 182 4.0 9.0 0.01 0.16 0.16 88 1005.5
20260902204355 60 180 5.0 12.0 0.01 0.16 0.16 89 1005.5
20260902203859 60 186 5.0 8.0 0.01 0.16 0.16 90 1005.4
20260902203854 60 167 5.0 12.0 0.01 0.16 0.16 90 1005.4
20260902203512 60 179 4.0 8.0 0.01 0.16 0.16 90 1005.5
20260902202358 60 158 4.0 12.0 0.02 0.16 0.16 91 1005.3
20260902202354 60 171 4.0 12.0 0.01 0.16 0.16 91 1005.4
20260902201355 60 190 2.0 7.0 0.02 0.16 0.16 91 1005.4
20260902200852 60 186 2.0 6.0 0.02 0.16 0.16 92 1005.3
20260902200354 59 161 2.0 9.0 0.02 0.16 0.16 91 1005.3
20260902195852 59 173 3.0 10.0 0.03 0.16 0.16 91 1005.3
20260902195353 59 175 3.0 10.0 0.03 0.16 0.16 92 1005.3
20260902194853 59 155 3.0 9.0 0.02 0.15 0.15 91 1005.4
20260902194352 59 169 3.0 10.0 0.02 0.15 0.15 91 1005.3
20260902193852 58 188 4.0 10.0 0.03 0.15 0.15 91 1005.4
20260902193353 58 172 5.0 15.0 0.03 0.15 0.15 91 1005.4
20260902192852 58 156 6.0 15.0 0.04 0.15 0.15 90 1005.3
20260902192353 58 169 4.0 13.0 0.04 0.15 0.15 90 1005.2
20260902191855 58 176 2.0 8.0 0.04 0.14 0.14 91 1005.2
20260902191849 58 173 3.0 11.0 0.03 0.14 0.14 91 1005.2
20260902191503 58 163 2.0 10.0 0.04 0.14 0.14 92 1005.2
20260902191003 58 161 2.0 10.0 0.05 0.14 0.14 91 1005.2
20260902185850 57 157 1.0 9.0 0.04 0.13 0.14 91 1005.3
20260902185356 57 171 2.0 8.0 0.06 0.13 0.13 91 1005.4
20260902185352 57 166 2.0 8.0 0.05 0.13 0.13 91 1005.2
20260902185003 57 189 2.0 8.0 0.07 0.13 0.13 91 1005.4
20260902183852 57 188 2.0 9.0 0.08 0.12 0.12 91 1005.3
20260902183848 57 165 2.0 8.0 0.07 0.12 0.12 91 1005.4
20260902182848 57 136 2.0 9.0 0.07 0.11 0.11 91 1005.3
20260902182353 57 180 1.0 5.0 0.07 0.11 0.11 91 1005.4
20260902182348 57 180 2.0 6.0 0.07 0.11 0.11 91 1005.4
20260902181352 57 317 1.0 4.0 0.06 0.10 0.10 90 1005.6
20260902181348 57 161 1.0 4.0 0.06 0.10 0.10 90 1005.5
20260902180353 57 173 1.0 5.0 0.06 0.09 0.09 90 1005.5
20260902180347 57 168 1.0 5.0 0.05 0.09 0.10 90 1005.5
20260902175349 58 173 1.0 4.0 0.05 0.08 0.08 90 1005.5
20260902174848 58 179 1.0 4.0 0.04 0.07 0.07 89 1005.5
20260902174347 58 180 0.0 3.0 0.03 0.06 0.06 89 1005.7
20260902173849 58 178 0.0 4.0 0.03 0.05 0.05 89 1005.9
20260902173345 58 169 1.0 4.0 0.02 0.04 0.04 89 1006.0
20260902172851 58 157 0.0 3.0 0.02 0.04 0.04 89 1005.9
20260902172847 58 177 0.0 2.0 0.02 0.04 0.04 89 1005.9
20260902172459 58 169 0.0 3.0 0.03 0.04 0.04 89 1006.0
20260902171346 58 135 0.0 3.0 0.03 0.04 0.04 89 1006.1
20260902170846 58 185 0.0 3.0 0.03 0.04 0.04 89 1006.1
20260902170345 58 186 0.0 3.0 0.03 0.04 0.04 89 1006.2
20260902165847 58 159 0.0 3.0 0.02 0.03 0.04 89 1006.3
20260902165345 58 150 1.0 5.0 0.03 0.03 0.03 89 1006.3
20260902164844 58 184 1.0 5.0 0.03 0.03 0.03 88 1006.3
20260902164345 58 169 1.0 5.0 0.03 0.03 0.03 88 1006.3
20260902163848 58 133 0.0 4.0 0.02 0.02 0.02 88 1006.3
20260902163844 58 186 1.0 5.0 0.02 0.02 0.02 88 1006.3
20260902162843 58 175 0.0 0.0 0.02 0.02 0.02 89 1006.3
20260902162344 58 175 0.0 0.0 0.02 0.02 0.02 89 1006.3
20260902161843 58 221 0.0 0.0 0.01 0.01 0.01 89 1006.5
20260902161349 58 221 0.0 0.0 0.01 0.01 0.01 88 1006.3
20260902161345 58 221 0.0 0.0 0.01 0.01 0.01 89 1006.3
20260902160842 58 221 0.0 0.0 0.01 0.01 0.01 88 1006.3
20260902160455 58 221 0.0 0.0 0.00 0.00 0.00 87 1006.3
20260902155841 58 221 0.0 0.0 0.01 0.01 0.01 88 1006.3
20260902155340 58 221 0.0 0.0 0.00 0.00 0.00 87 1006.3
20260902154344 58 221 0.0 2.0 0.00 0.00 0.00 87 1006.5
20260902154340 58 221 0.0 0.0 0.00 0.00 0.00 87 1006.5
20260902153958 58 221 0.0 2.0 0.00 0.00 0.00 86 1006.5
20260902152837 58 221 0.0 0.0 0.00 0.00 0.00 85 1006.5
20260902152337 58 221 0.0 2.0 0.00 0.00 0.00 85 1006.6
20260902151838 58 221 0.0 2.0 0.00 0.00 0.00 85 1006.7
20260902151339 58 221 0.0 2.0 0.00 0.00 0.00 85 1006.6
20260902150838 58 221 0.0 2.0 0.00 0.00 0.00 84 1006.7
20260902150338 58 221 0.0 2.0 0.00 0.00 0.00 85 1006.7
20260902145837 58 221 0.0 2.0 0.00 0.00 0.00 85 1006.8
20260902145339 58 235 0.0 2.0 0.00 0.00 0.00 85 1006.8
20260902144844 58 197 0.0 0.0 0.00 0.00 0.00 85 1006.9
20260902144837 58 235 0.0 2.0 0.00 0.00 0.00 85 1006.8
20260902144338 58 235 0.0 1.0 0.00 0.00 0.00 85 1006.9
20260902143338 58 197 0.0 0.0 0.00 0.00 0.00 85 1006.9
20260902142837 58 197 0.0 0.0 0.00 0.00 0.00 85 1007.0
20260902142337 58 197 0.0 0.0 0.00 0.00 0.00 85 1007.1
20260902141838 58 196 0.0 0.0 0.00 0.00 0.00 85 1007.2
20260902141337 58 196 0.0 0.0 0.00 0.00 0.00 84 1007.3
20260902140838 58 196 0.0 0.0 0.00 0.00 0.00 83 1007.3
20260902140339 58 196 0.0 0.0 0.00 0.00 0.00 83 1007.3
20260902135838 58 196 0.0 0.0 0.00 0.00 0.00 83 1007.3
20260902135342 58 196 0.0 0.0 0.00 0.00 0.00 83 1007.5
20260902135338 58 196 0.0 0.0 0.00 0.00 0.00 83 1007.4
20260902134338 58 196 0.0 0.0 0.00 0.00 0.00 82 1007.5
20260902133842 58 196 0.0 0.0 0.00 0.00 0.00 82 1007.5
20260902133838 58 196 0.0 0.0 0.00 0.00 0.00 82 1007.5
20260902132843 58 196 0.0 2.0 0.00 0.00 0.00 82 1007.6
20260902132838 58 196 0.0 0.0 0.00 0.00 0.00 82 1007.6
20260902131837 58 196 0.0 2.0 0.00 0.00 0.00 82 1007.7
20260902131337 58 196 0.0 2.0 0.00 0.00 0.00 82 1007.7
20260902130837 58 196 0.0 2.0 0.00 0.00 0.00 82 1007.8
20260902130338 58 196 0.0 2.0 0.00 0.00 0.00 82 1007.9
20260902125836 58 196 0.0 2.0 0.00 0.00 0.00 81 1007.9
20260902125336 58 196 0.0 3.0 0.00 0.00 0.00 81 1008.0
20260902124840 58 196 0.0 2.0 0.00 0.00 0.00 81 1008.0
20260902124835 58 196 0.0 3.0 0.00 0.00 0.00 81 1008.0
20260902123836 58 148 0.0 2.0 0.00 0.00 0.00 81 1008.1
20260902123333 59 173 0.0 2.0 0.00 0.00 0.00 81 1008.1
20260902122833 59 173 0.0 2.0 0.00 0.00 0.00 80 1008.3
20260902122333 59 173 0.0 2.0 0.00 0.00 0.00 80 1008.3
20260902121839 59 157 1.0 3.0 0.00 0.00 0.00 80 1008.5
20260902121835 59 173 0.0 2.0 0.00 0.00 0.00 80 1008.4
20260902121438 59 155 0.0 3.0 0.00 0.00 0.00 80 1008.5
20260902120945 59 142 0.0 3.0 0.00 0.00 0.00 80 1008.5
20260902120333 59 180 1.0 3.0 0.00 0.00 0.00 80 1008.6
20260902115947 59 166 1.0 5.0 0.00 0.00 0.00 80 1008.6
20260902114832 59 175 1.0 5.0 0.00 0.00 0.00 80 1008.8
20260902114329 59 163 1.0 5.0 0.00 0.00 0.00 80 1008.9
20260902113829 59 169 1.0 5.0 0.00 0.00 0.00 80 1009.0
20260902113334 59 192 1.0 6.0 0.00 0.00 0.00 81 1009.0
20260902113329 59 173 1.0 3.0 0.00 0.00 0.00 81 1008.9
20260902112329 59 180 1.0 6.0 0.00 0.00 0.00 81 1009.1
20260902111829 59 189 2.0 7.0 0.00 0.00 0.00 81 1009.2
20260902111329 59 202 1.0 7.0 0.00 0.00 0.00 81 1009.2
20260902110829 59 198 1.0 7.0 0.00 0.00 0.00 80 1009.3
20260902110329 59 185 1.0 7.0 0.00 0.00 0.00 80 1009.4
20260902105828 59 186 1.0 4.0 0.00 0.00 0.00 80 1009.4
20260902105328 59 178 1.0 6.0 0.00 0.00 0.00 80 1009.4
20260902104831 59 171 1.0 5.0 0.00 0.00 0.00 80 1009.5
20260902104827 59 132 1.0 6.0 0.00 0.00 0.00 80 1009.4
20260902104440 59 173 1.0 6.0 0.00 0.00 0.00 80 1009.6
20260902103327 59 166 1.0 6.0 0.00 0.00 0.00 80 1009.6
20260902102827 59 175 1.0 4.0 0.00 0.00 0.00 80 1009.6
20260902102333 59 179 2.0 5.0 0.00 0.00 0.00 80 1009.7
20260902102327 59 166 2.0 4.0 0.00 0.00 0.00 80 1009.7
20260902101326 59 182 2.0 5.0 0.00 0.00 0.00 80 1009.7
20260902100827 59 176 2.0 5.0 0.00 0.00 0.00 81 1009.7
20260902100325 58 168 2.0 5.0 0.00 0.00 0.00 81 1009.8
20260902095826 58 184 1.0 3.0 0.00 0.00 0.00 81 1009.8
20260902095326 58 174 1.0 6.0 0.00 0.00 0.00 82 1009.8
20260902094826 58 185 2.0 6.0 0.00 0.00 0.00 82 1009.9
20260902094327 58 176 2.0 5.0 0.00 0.00 0.00 82 1009.9
20260902093830 58 190 1.0 3.0 0.00 0.00 0.00 82 1009.9
20260902093825 58 173 1.0 5.0 0.00 0.00 0.00 82 1009.8
20260902092826 58 190 1.0 3.0 0.00 0.00 0.00 81 1009.9
20260902092326 58 190 2.0 4.0 0.00 0.00 0.00 81 1010.0
20260902091826 58 190 2.0 4.0 0.00 0.00 0.00 81 1010.1
20260902091323 58 190 2.0 5.0 0.00 0.00 0.00 81 1010.2
20260902090824 58 190 2.0 5.0 0.00 0.00 0.00 81 1010.1
20260902090324 58 178 1.0 3.0 0.00 0.00 0.00 81 1010.1
20260902085824 58 179 1.0 4.0 0.00 0.00 0.00 82 1010.2
20260902085323 58 170 1.0 5.0 0.00 0.00 0.00 83 1010.3
20260902084823 58 161 1.0 5.0 0.00 0.00 0.00 84 1010.3
20260902084324 57 192 0.0 3.0 0.00 0.00 0.00 85 1010.4
20260902083824 57 200 0.0 2.0 0.00 0.00 0.00 86 1010.4
20260902083322 56 254 0.0 2.0 0.00 0.00 0.00 87 1010.4
20260902082826 56 254 0.0 0.0 0.00 0.00 0.00 87 1010.5
20260902082821 56 254 0.0 0.0 0.00 0.00 0.00 87 1010.4
20260902081825 55 254 0.0 0.0 0.00 0.00 0.00 85 1010.6
20260902081820 55 254 0.0 0.0 0.00 0.00 0.00 86 1010.4
20260902081319 55 254 0.0 0.0 0.00 0.00 0.00 85 1010.6
20260902080319 55 254 0.0 0.0 0.00 0.00 0.00 85 1010.6
20260902075824 55 254 0.0 0.0 0.00 0.00 0.00 85 1010.7
20260902075820 55 254 0.0 0.0 0.00 0.00 0.00 87 1010.7
20260902074819 55 254 0.0 0.0 0.00 0.00 0.00 85 1010.8
20260902074318 55 254 0.0 0.0 0.00 0.00 0.00 85 1010.8
20260902073817 55 254 0.0 0.0 0.00 0.00 0.00 82 1010.9
20260902073316 55 254 0.0 1.0 0.00 0.00 0.00 81 1010.9
20260902072816 56 254 0.0 1.0 0.00 0.00 0.00 80 1010.9
20260902072317 56 254 0.0 2.0 0.00 0.00 0.00 81 1010.9
20260902071822 57 254 0.0 2.0 0.00 0.00 0.00 80 1011.0
20260902071818 57 254 0.0 2.0 0.00 0.00 0.00 80 1011.0
20260902070817 58 297 0.0 2.0 0.00 0.00 0.00 79 1011.1
20260902070320 59 297 0.0 2.0 0.00 0.00 0.00 78 1011.0
20260902070316 58 297 0.0 2.0 0.00 0.00 0.00 79 1011.1
20260902065928 60 297 0.0 1.0 0.00 0.00 0.00 77 1011.1
20260902065315 59 297 0.0 2.0 0.00 0.00 0.00 77 1011.1
20260902064315 60 297 0.0 3.0 0.00 0.00 0.00 77 1011.0
20260902063816 60 297 0.0 3.0 0.00 0.00 0.00 77 1011.0
20260902063315 61 211 0.0 2.0 0.00 0.00 0.00 77 1011.2
20260902062815 61 211 0.0 2.0 0.00 0.00 0.00 77 1011.3
20260902062319 61 207 0.0 2.0 0.00 0.00 0.00 76 1011.3
20260902062315 61 207 0.0 2.0 0.00 0.00 0.00 76 1011.3
20260902061316 61 207 0.0 2.0 0.00 0.00 0.00 76 1011.3
20260902060813 61 207 0.0 2.0 0.00 0.00 0.00 75 1011.3
20260902060313 61 207 1.0 2.0 0.00 0.00 0.00 75 1011.4
20260902055813 61 207 1.0 3.0 0.00 0.00 0.00 75 1011.4
20260902055313 61 208 0.0 3.0 0.00 0.00 0.00 75 1011.5
20260902054814 61 210 0.0 2.0 0.00 0.00 0.00 75 1011.5
20260902054313 61 210 0.0 2.0 0.00 0.00 0.00 75 1011.5
20260902053813 61 210 0.0 2.0 0.00 0.00 0.00 75 1011.5
20260902053312 61 210 0.0 2.0 0.00 0.00 0.00 75 1011.5
20260902052811 61 210 0.0 2.0 0.00 0.00 0.00 75 1011.6
20260902052316 61 222 0.0 3.0 0.00 0.00 0.00 75 1011.6
20260902052312 61 219 0.0 3.0 0.00 0.00 0.00 75 1011.6
20260902051311 61 231 0.0 2.0 0.00 0.00 0.00 75 1011.6
20260902050816 61 285 0.0 2.0 0.00 0.00 0.00 74 1011.6
20260902050812 61 247 0.0 2.0 0.00 0.00 0.00 75 1011.6
20260902045811 61 285 0.0 2.0 0.00 0.00 0.00 74 1011.7
20260902045317 61 286 0.0 2.0 0.00 0.00 0.00 75 1011.6
20260902044814 61 286 0.0 2.0 0.00 0.00 0.00 74 1011.7
20260902044310 62 286 0.0 0.0 0.00 0.00 0.00 74 1011.6
20260902043811 62 286 0.0 0.0 0.00 0.00 0.00 74 1011.6
20260902043309 62 286 0.0 0.0 0.00 0.00 0.00 74 1011.6
20260902042808 62 286 0.0 0.0 0.00 0.00 0.00 73 1011.6
20260902042310 62 286 0.0 0.0 0.00 0.00 0.00 73 1011.5
20260902041810 62 286 0.0 2.0 0.00 0.00 0.00 72 1011.5
20260902041309 62 286 0.0 2.0 0.00 0.00 0.00 71 1011.6
20260902040809 62 286 0.0 2.0 0.00 0.00 0.00 72 1011.6
20260902040309 62 286 0.0 2.0 0.00 0.00 0.00 72 1011.5
20260902035809 62 286 0.0 2.0 0.00 0.00 0.00 72 1011.6
20260902035308 62 286 0.0 2.0 0.00 0.00 0.00 72 1011.6
20260902034813 62 286 1.0 3.0 0.00 0.00 0.00 72 1011.5
20260902034809 62 286 1.0 2.0 0.00 0.00 0.00 72 1011.5
20260902033809 62 286 0.0 3.0 0.00 0.00 0.00 72 1011.5
20260902033310 62 286 1.0 3.0 0.00 0.00 0.00 72 1011.5
20260902032809 63 286 2.0 4.0 0.00 0.00 0.00 71 1011.6
20260902032423 63 269 1.0 4.0 0.00 0.00 0.00 71 1011.6
20260902032315 63 269 0.0 4.0 0.00 0.00 0.00 71 1011.6
20260902032311 63 297 1.0 4.0 0.00 0.00 0.00 71 1011.6
20260902030810 63 261 0.0 2.0 0.00 0.00 0.00 70 1011.6
20260902030806 63 260 0.0 3.0 0.00 0.00 0.00 70 1011.6
20260902025810 64 302 1.0 3.0 0.00 0.00 0.00 69 1011.5
20260902025805 63 261 1.0 3.0 0.00 0.00 0.00 69 1011.5
20260902024805 64 281 1.0 3.0 0.00 0.00 0.00 69 1011.6
20260902024305 64 294 1.0 4.0 0.00 0.00 0.00 69 1011.5
20260902023804 64 261 1.0 4.0 0.00 0.00 0.00 69 1011.5
20260902023305 64 246 1.0 4.0 0.00 0.00 0.00 69 1011.5
20260902022805 64 213 1.0 6.0 0.00 0.00 0.00 68 1011.5
20260902022310 65 306 2.0 4.0 0.00 0.00 0.00 67 1011.4
20260902022306 64 273 1.0 6.0 0.00 0.00 0.00 68 1011.5
20260902021801 65 292 2.0 4.0 0.00 0.00 0.00 67 1011.4
20260902020800 65 259 2.0 5.0 0.00 0.00 0.00 66 1011.4
20260902020302 66 286 2.0 5.0 0.00 0.00 0.00 64 1011.4
20260902015800 67 282 2.0 5.0 0.00 0.00 0.00 63 1011.3
20260902015305 67 302 2.0 6.0 0.00 0.00 0.00 63 1011.3
20260902014806 67 297 2.0 8.0 0.00 0.00 0.00 62 1011.4
20260902014802 67 280 2.0 6.0 0.00 0.00 0.00 63 1011.3
20260902014415 68 189 2.0 8.0 0.00 0.00 0.00 61 1011.3
20260902013304 68 265 3.0 8.0 0.00 0.00 0.00 60 1011.3
20260902013300 68 200 2.0 8.0 0.00 0.00 0.00 61 1011.3
20260902012308 68 219 3.0 8.0 0.00 0.00 0.00 59 1011.3
20260902012257 68 255 4.0 8.0 0.00 0.00 0.00 60 1011.4
20260902011256 68 158 2.0 8.0 0.00 0.00 0.00 61 1011.2
20260902010802 67 286 2.0 8.0 0.00 0.00 0.00 62 1011.3
20260902010257 66 239 2.0 8.0 0.00 0.00 0.00 65 1011.3
20260902005759 66 248 2.0 7.0 0.00 0.00 0.00 65 1011.3
20260902005257 66 218 2.0 8.0 0.00 0.00 0.00 65 1011.3
20260902004756 66 229 2.0 8.0 0.00 0.00 0.00 65 1011.3
20260902004256 66 251 2.0 8.0 0.00 0.00 0.00 65 1011.3
20260902003757 66 238 3.0 8.0 0.00 0.00 0.00 66 1011.1
20260902003258 66 314 2.0 7.0 0.00 0.00 0.00 65 1011.2
20260902002800 65 266 2.0 6.0 0.00 0.00 0.00 67 1011.3
20260902002756 66 296 2.0 7.0 0.00 0.00 0.00 66 1011.3
20260902001756 65 259 2.0 6.0 0.00 0.00 0.00 69 1011.3
20260902001257 65 283 2.0 5.0 0.00 0.00 0.00 68 1011.3
20260902000756 65 286 2.0 5.0 0.00 0.00 0.00 69 1011.3
20260902000257 64 267 3.0 8.0 0.00 0.00 0.00 69 1011.3
20260901235757 65 270 3.0 8.0 0.00 0.00 0.00 69 1011.3
20260901235307 65 299 3.0 8.0 0.00 0.00 0.00 68 1011.4
20260901235258 65 282 2.0 6.0 0.00 0.00 0.00 68 1011.4
20260901234910 65 233 3.0 8.0 0.00 0.00 0.00 68 1011.4
20260901233758 65 286 2.0 8.0 0.00 0.00 0.00 69 1011.3
20260901233301 65 306 2.0 9.0 0.00 0.00 0.00 70 1011.2
20260901233256 65 291 2.0 8.0 0.00 0.00 0.00 70 1011.2
20260901232258 65 229 3.0 9.0 0.00 0.00 0.00 70 1011.3
20260901231757 65 302 3.0 8.0 0.00 0.00 0.00 71 1011.4
20260901231257 65 289 2.0 8.0 0.00 0.00 0.00 71 1011.4
20260901230756 65 351 3.0 8.0 0.00 0.00 0.00 71 1011.4
20260901230256 65 331 4.0 8.0 0.00 0.00 0.00 71 1011.4
20260901225756 65 305 4.0 11.0 0.00 0.00 0.00 71 1011.4
20260901225255 65 355 3.0 11.0 0.00 0.00 0.00 71 1011.5
20260901224756 64 303 3.0 8.0 0.00 0.00 0.00 72 1011.4
20260901224255 64 313 3.0 9.0 0.00 0.00 0.00 72 1011.4
20260901223755 64 315 3.0 9.0 0.00 0.00 0.00 72 1011.3
20260901223255 64 298 3.0 8.0 0.00 0.00 0.00 73 1011.4
20260901222755 64 306 3.0 8.0 0.00 0.00 0.00 74 1011.5
20260901222253 64 273 3.0 8.0 0.00 0.00 0.00 74 1011.6
20260901221756 64 328 3.0 8.0 0.00 0.00 0.00 74 1011.6
20260901221751 64 321 3.0 8.0 0.00 0.00 0.00 74 1011.6
20260901220751 64 299 3.0 6.0 0.00 0.00 0.00 73 1011.5
20260901220250 65 258 2.0 6.0 0.00 0.00 0.00 72 1011.5
20260901215754 65 300 2.0 6.0 0.00 0.00 0.00 72 1011.3
20260901215750 65 304 2.0 6.0 0.00 0.00 0.00 71 1011.4